User: anonymous   Login
Location: Unspecified
(0.0000°N, 0.0000°E)
Time: 03:39:55
(UTC+00:00)
Language:

OBJECT C - Orbit

View from above orbital plane
View from above orbital plane
View from above satellite
View from above satellite

Ground track
Ground track

The orbit data is extracted from the following two-line orbital elements,

1 42827U 17042C   17265.55567437 +.00000535 +00000-0 +60165-4 0  9995
2 42827 097.6086 172.7176 0015753 012.7867 347.3748 14.90549069010424
Epoch (UTC): 22 September 2017 13:20:10
Eccentricity: 0.0015753
inclination: 97.6086°
perigee height: 585 km
apogee height: 607 km
right ascension of ascending node: 172.7176°
argument of perigee: 12.7867°
revolutions per day: 14.90549069
mean anomaly at epoch: 347.3748°
orbit number at epoch: 1042

The dashed part of the orbit path shows where the satellite is in the earth's shadow,  

DLR